TimeCST,TemperatureF,Dew PointF,Humidity,Sea Level PressureIn,VisibilityMPH,Wind Direction,Wind SpeedMPH,Gust SpeedMPH,PrecipitationIn,Events,Conditions,WindDirDegrees,DateUTC
12:58 AM,22.8,19.6,87,30.36,10.0,WNW,8.1,-,N/A,,Overcast,300,2013-12-23 06:58:00
1:58 AM,22.3,19.8,90,30.38,10.0,NNW,6.9,-,N/A,,Overcast,330,2013-12-23 07:58:00
2:58 AM,21.0,18.5,90,30.41,10.0,North,8.1,-,N/A,,Overcast,360,2013-12-23 08:58:00
3:58 AM,19.0,16.2,89,30.42,10.0,NW,5.8,-,N/A,,Mostly Cloudy,310,2013-12-23 09:58:00
4:18 AM,17.6,14.0,86,30.37,10.0,NW,4.6,-,N/A,,Scattered Clouds,310,2013-12-23 10:18:00
4:58 AM,16.3,13.5,88,30.44,10.0,WNW,3.5,-,N/A,,Clear,300,2013-12-23 10:58:00
5:58 AM,15.3,13.1,91,30.46,10.0,WNW,4.6,-,N/A,,Clear,300,2013-12-23 11:58:00
6:58 AM,14.9,13.1,93,30.48,10.0,NW,2.3,-,N/A,,Clear,310,2013-12-23 12:58:00
7:58 AM,14.7,13.6,95,30.51,10.0,WNW,4.6,-,N/A,,Clear,300,2013-12-23 13:58:00
8:58 AM,17.4,14.5,88,30.53,10.0,NNW,8.1,-,N/A,,Clear,330,2013-12-23 14:58:00
9:58 AM,19.8,13.8,78,30.55,10.0,Variable,6.9,-,N/A,,Mostly Cloudy,0,2013-12-23 15:58:00
10:58 AM,21.6,14.4,74,30.58,10.0,NW,9.2,-,N/A,,Mostly Cloudy,310,2013-12-23 16:58:00
11:58 AM,22.1,15.1,74,30.55,10.0,North,8.1,-,N/A,,Overcast,350,2013-12-23 17:58:00
12:58 PM,23.7,15.4,71,30.53,10.0,NNW,9.2,-,N/A,,Overcast,340,2013-12-23 18:58:00
1:33 PM,23.0,17.6,80,30.47,10.0,NNW,9.2,-,N/A,,Overcast,330,2013-12-23 19:33:00
1:58 PM,22.5,16.2,77,30.54,10.0,NW,10.4,-,N/A,,Overcast,320,2013-12-23 19:58:00
2:33 PM,21.2,15.8,80,30.49,10.0,NW,9.2,-,N/A,,Overcast,320,2013-12-23 20:33:00
2:58 PM,20.1,16.0,84,30.56,10.0,WNW,8.1,-,N/A,,Overcast,300,2013-12-23 20:58:00
3:33 PM,19.4,15.8,86,30.49,10.0,WNW,8.1,-,N/A,,Overcast,290,2013-12-23 21:33:00
3:43 PM,19.4,15.8,86,30.50,10.0,WNW,6.9,-,N/A,,Overcast,300,2013-12-23 21:43:00
3:48 PM,19.4,15.8,86,30.49,10.0,NW,8.1,-,N/A,Snow,Light Snow,320,2013-12-23 21:48:00
3:58 PM,19.9,15.4,83,30.56,10.0,Variable,3.5,-,0.00,Snow,Light Snow,0,2013-12-23 21:58:00
4:13 PM,19.4,15.8,86,30.50,10.0,NW,6.9,-,N/A,Snow,Light Snow,310,2013-12-23 22:13:00
4:15 PM,19.4,15.8,86,30.50,10.0,NW,6.9,-,N/A,,Overcast,310,2013-12-23 22:15:00
4:17 PM,19.4,15.8,86,30.50,10.0,NW,5.8,-,N/A,Snow,Light Snow,310,2013-12-23 22:17:00
4:22 PM,19.4,15.8,86,30.50,10.0,WNW,8.1,-,N/A,Snow,Light Snow,300,2013-12-23 22:22:00
4:42 PM,19.4,15.8,86,30.50,10.0,West,5.8,-,N/A,,Overcast,260,2013-12-23 22:42:00
4:58 PM,19.2,15.8,87,30.58,10.0,West,8.1,-,0.00,,Overcast,280,2013-12-23 22:58:00
5:02 PM,19.4,15.8,86,30.51,10.0,West,5.8,-,N/A,Snow,Light Snow,280,2013-12-23 23:02:00
5:33 PM,19.4,15.8,86,30.51,10.0,WNW,3.5,-,N/A,,Overcast,290,2013-12-23 23:33:00
5:35 PM,19.4,15.8,86,30.51,10.0,WNW,4.6,-,N/A,Snow,Light Snow,300,2013-12-23 23:35:00
5:58 PM,18.7,15.8,89,30.58,10.0,Variable,4.6,-,0.00,Snow,Light Snow,0,2013-12-23 23:58:00
6:08 PM,17.6,15.8,93,30.51,10.0,WNW,4.6,-,N/A,Snow,Light Snow,300,2013-12-24 00:08:00
6:20 PM,19.4,15.8,86,30.51,10.0,NW,5.8,-,N/A,,Overcast,310,2013-12-24 00:20:00
6:58 PM,18.5,15.6,89,30.59,10.0,WNW,8.1,-,0.00,,Overcast,300,2013-12-24 00:58:00
7:55 PM,17.6,15.8,93,30.53,10.0,WNW,8.1,-,N/A,Snow,Light Snow,300,2013-12-24 01:55:00
7:58 PM,18.1,15.4,89,30.60,10.0,WNW,9.2,-,0.00,Snow,Light Snow,300,2013-12-24 01:58:00
8:13 PM,17.6,14.0,86,30.53,10.0,Variable,6.9,-,N/A,,Overcast,0,2013-12-24 02:13:00
8:50 PM,15.8,12.2,86,30.53,10.0,WNW,9.2,17.3,N/A,Snow,Light Snow,300,2013-12-24 02:50:00
8:55 PM,15.8,12.2,86,30.54,10.0,NW,11.5,-,N/A,Snow,Light Snow,310,2013-12-24 02:55:00
8:57 PM,15.8,12.2,86,30.54,10.0,WNW,9.2,-,N/A,,Overcast,300,2013-12-24 02:57:00
8:58 PM,15.8,12.2,86,30.61,10.0,WNW,10.4,-,0.00,,Overcast,300,2013-12-24 02:58:00
9:13 PM,15.8,10.4,79,30.54,10.0,WNW,6.9,-,N/A,Snow,Light Snow,290,2013-12-24 03:13:00
9:33 PM,15.8,12.2,86,30.54,10.0,NNW,8.1,-,N/A,Snow,Light Snow,330,2013-12-24 03:33:00
9:58 PM,15.8,12.2,86,30.62,10.0,NNW,11.5,-,0.00,Snow,Light Snow,330,2013-12-24 03:58:00
10:03 PM,15.8,12.2,86,30.55,10.0,NW,9.2,-,N/A,Snow,Light Snow,320,2013-12-24 04:03:00
10:33 PM,14.0,10.4,86,30.56,9.0,NNW,8.1,-,N/A,Snow,Light Snow,340,2013-12-24 04:33:00
10:38 PM,14.0,10.4,86,30.56,9.0,NNW,8.1,-,N/A,Snow,Light Snow,340,2013-12-24 04:38:00
10:43 PM,14.0,10.4,86,30.56,10.0,NNW,9.2,-,N/A,Snow,Light Snow,330,2013-12-24 04:43:00
10:58 PM,12.7,8.8,84,30.63,10.0,NNW,8.1,-,0.00,Snow,Light Snow,330,2013-12-24 04:58:00
11:20 PM,12.2,8.6,85,30.56,10.0,North,8.1,-,N/A,,Overcast,350,2013-12-24 05:20:00
11:30 PM,12.2,8.6,85,30.56,10.0,NNW,8.1,-,N/A,,Overcast,340,2013-12-24 05:30:00
11:40 PM,12.2,8.6,85,30.56,10.0,North,8.1,-,N/A,,Overcast,350,2013-12-24 05:40:00
11:55 PM,12.2,8.6,85,30.56,10.0,North,5.8,-,N/A,,Overcast,10,2013-12-24 05:55:00
11:58 PM,11.7,8.2,86,30.63,10.0,North,8.1,-,0.00,,Overcast,10,2013-12-24 05:58:00
11:59 PM,12.2,8.6,85,30.56,10.0,North,5.8,-,N/A,Snow,Light Snow,360,2013-12-24 05:59:00